Terminal Aerodrome Forecast
Issued by NWS Pueblo, CO

Home | Current Version | Previous Version | Text Only | Print | Product List | Glossary On
Versions: 1 2 3 4 5 6 7 8 9 10 11 12 13 14 15 16 17 18 19 20 21 22 23 24 25 26 27 28 29 30 31 32 33 34 35 36 37 38 39 40 41 42 43 44 45 46
000
FTUS45 KPUB 300425 AAB
TAFPUB
TAF AMD
KPUB 300425Z 3004/3024 VRB07KT P6SM VCSH SCT050 OVC100
      TEMPO 3004/3006 -SHRA BKN050
     FM300700 01007KT P6SM SCT025 BKN080
     FM301000 VRB05KT P6SM SCT050 BKN150
     FM301900 10009KT P6SM VCTS BKN040CB=

USA.gov is the U.S. government's official web portal to all federal, state and local government web resources and services.